DW8633 Weather Reports


Display with metric or nautical units.
time (UTC)temp
F
wind
direction
speed
MPH
gust
MPH
rain 1hr
in
rain 24hr
in
rain mn
in
humidity
%
barometer
mb
20260509235505 62 323 12.0 18.0 0.00 0.00 0.00 36 934.0
20260509235005 63 298 13.0 18.0 0.00 0.00 0.00 35 934.0
20260509234504 63 309 11.0 18.0 0.00 0.00 0.00 35 934.0
20260509233503 63 321 13.0 18.0 0.00 0.00 0.00 35 934.1
20260509233004 64 313 11.0 20.0 0.00 0.00 0.00 34 934.0
20260509232503 64 333 14.0 20.0 0.00 0.00 0.00 34 934.0
20260509232003 64 292 6.0 15.0 0.00 0.00 0.00 35 934.0
20260509231502 64 327 11.0 15.0 0.00 0.00 0.00 35 934.0
20260509231006 64 346 11.0 18.0 0.00 0.00 0.00 35 934.0
20260509230502 63 336 13.0 18.0 0.00 0.00 0.00 37 934.1
20260509230004 62 339 12.0 20.0 0.00 0.00 0.00 37 934.1
20260509225502 62 310 11.0 16.0 0.00 0.00 0.00 37 933.9
20260509225001 62 323 11.0 19.0 0.00 0.00 0.00 37 934.0
20260509224501 62 355 12.0 19.0 0.00 0.00 0.00 37 933.9
20260509223501 62 22 10.0 15.0 0.00 0.00 0.00 38 933.9
20260509223002 62 360 10.0 20.0 0.00 0.00 0.00 36 934.0
20260509222501 64 317 13.0 21.0 0.00 0.00 0.00 35 934.0
20260509222004 64 307 11.0 23.0 0.00 0.00 0.00 35 934.0
20260509221600 65 304 14.0 21.0 0.00 0.00 0.00 35 933.9
20260509221100 64 319 11.0 18.0 0.00 0.00 0.00 36 934.0
20260509220558 64 306 10.0 18.0 0.00 0.00 0.00 36 934.0
20260509215558 63 324 14.0 20.0 0.00 0.00 0.00 36 934.1
20260509215058 63 285 10.0 16.0 0.00 0.00 0.00 37 934.1
20260509214628 63 316 8.0 20.0 0.00 0.00 0.00 37 934.1
20260509213556 62 346 11.0 22.0 0.00 0.00 0.00 37 934.1
20260509213057 63 305 15.0 22.0 0.00 0.00 0.00 37 934.3
20260509212555 63 290 13.0 24.0 0.00 0.00 0.00 36 934.3
20260509212058 63 287 14.0 24.0 0.00 0.00 0.00 37 934.2
20260509211555 63 317 12.0 23.0 0.00 0.00 0.00 37 934.2
20260509211054 62 350 14.0 24.0 0.00 0.00 0.00 39 934.2
20260509210555 61 331 14.0 24.0 0.00 0.00 0.00 38 934.2
20260509210106 61 343 14.0 25.0 0.00 0.00 0.00 37 934.2
20260509205553 62 12 19.0 25.0 0.00 0.00 0.00 37 934.3
20260509205053 61 315 9.0 18.0 0.00 0.00 0.00 39 934.3
20260509204553 61 300 10.0 21.0 0.00 0.00 0.00 40 934.3
20260509203556 60 348 17.0 22.0 0.00 0.00 0.00 40 934.4
20260509203102 61 275 12.0 24.0 0.00 0.00 0.00 39 934.4
20260509202552 63 343 16.0 24.0 0.00 0.00 0.00 38 934.4
20260509202052 62 300 14.0 22.0 0.00 0.00 0.00 41 934.4
20260509201552 61 9 10.0 22.0 0.00 0.00 0.00 39 934.3
20260509201053 62 360 15.0 22.0 0.00 0.00 0.00 39 934.5
20260509200550 61 360 10.0 22.0 0.00 0.00 0.00 41 934.2
20260509200050 61 360 14.0 22.0 0.00 0.00 0.00 40 934.4
20260509195550 61 360 14.0 22.0 0.00 0.00 0.00 42 934.4
20260509195049 61 360 11.0 25.0 0.00 0.00 0.00 40 934.4
20260509194550 61 360 15.0 25.0 0.00 0.00 0.00 41 934.6
20260509193549 60 360 14.0 21.0 0.00 0.00 0.00 42 934.6
20260509193055 59 360 7.0 18.0 0.00 0.00 0.00 43 934.5
20260509192550 61 360 11.0 22.0 0.00 0.00 0.00 43 934.6
20260509192148 60 360 15.0 22.0 0.00 0.00 0.00 43 934.6
20260509191558 60 360 7.0 14.0 0.00 0.00 0.00 44 934.5
20260509191048 60 360 10.0 15.0 0.00 0.00 0.00 44 934.5
20260509190545 58 360 10.0 15.0 0.00 0.00 0.00 45 934.7
20260509190051 58 360 6.0 13.0 0.00 0.00 0.00 47 934.6
20260509185545 58 360 8.0 18.0 0.00 0.00 0.00 45 934.7
20260509185045 59 360 11.0 18.0 0.00 0.00 0.00 45 934.7
20260509184555 59 360 6.0 11.0 0.00 0.00 0.00 45 934.7
20260509183542 58 360 12.0 18.0 0.00 0.00 0.00 45 934.8
20260509183050 57 360 10.0 18.0 0.00 0.00 0.00 46 934.8
20260509182542 57 360 6.0 15.0 0.00 0.00 0.00 48 934.8
20260509182041 57 360 9.0 20.0 0.00 0.00 0.00 46 934.8
20260509181541 57 360 11.0 20.0 0.00 0.00 0.00 47 934.7
20260509181041 57 360 11.0 20.0 0.00 0.00 0.00 47 934.8
20260509180540 56 360 8.0 19.0 0.00 0.00 0.00 46 934.8
20260509180039 57 360 10.0 16.0 0.00 0.00 0.00 45 934.7
20260509175539 58 360 9.0 18.0 0.00 0.00 0.00 46 934.6
20260509175039 58 360 12.0 18.0 0.00 0.00 0.00 45 934.6
20260509174553 57 360 10.0 18.0 0.00 0.00 0.00 47 934.5
20260509173537 57 360 12.0 16.0 0.00 0.00 0.00 46 934.7
20260509173044 56 360 11.0 16.0 0.00 0.00 0.00 47 934.7
20260509172536 56 360 6.0 20.0 0.00 0.00 0.00 46 934.6
20260509172036 57 360 10.0 20.0 0.00 0.00 0.00 47 934.6
20260509171534 56 360 9.0 19.0 0.00 0.00 0.00 47 934.5
20260509171132 56 360 11.0 19.0 0.00 0.00 0.00 47 934.6
20260509170633 55 360 9.0 13.0 0.00 0.00 0.00 49 934.5
20260509170032 56 360 9.0 16.0 0.00 0.00 0.00 46 934.4
20260509165531 56 360 9.0 15.0 0.00 0.00 0.00 46 934.4
20260509165029 55 360 7.0 15.0 0.00 0.00 0.00 48 934.2
20260509164528 55 360 9.0 15.0 0.00 0.00 0.00 49 934.4
20260509163527 54 360 11.0 15.0 0.00 0.00 0.00 47 934.4
20260509163037 54 360 9.0 15.0 0.00 0.00 0.00 49 934.5
20260509162526 54 360 9.0 16.0 0.00 0.00 0.00 49 934.5
20260509162025 53 360 6.0 16.0 0.00 0.00 0.00 52 934.4
20260509161524 53 360 9.0 14.0 0.00 0.00 0.00 50 934.3
20260509161027 53 360 9.0 14.0 0.00 0.00 0.00 52 934.5
20260509160523 53 360 10.0 18.0 0.00 0.00 0.00 50 934.4
20260509160023 53 360 9.0 18.0 0.00 0.00 0.00 52 934.4
20260509155521 53 360 9.0 15.0 0.00 0.00 0.00 53 934.3
20260509155022 52 360 8.0 16.0 0.00 0.00 0.00 52 934.4
20260509154521 52 360 11.0 16.0 0.00 0.00 0.00 51 934.3
20260509153519 52 360 9.0 12.0 0.00 0.00 0.00 52 934.4
20260509153023 52 360 8.0 14.0 0.00 0.00 0.00 52 934.3
20260509152518 51 360 6.0 14.0 0.00 0.00 0.00 53 934.2
20260509152020 51 360 10.0 14.0 0.00 0.00 0.00 52 934.2
20260509151518 52 360 7.0 12.0 0.00 0.00 0.00 54 934.1
20260509151017 52 360 7.0 13.0 0.00 0.00 0.00 54 934.2
20260509150518 51 360 6.0 11.0 0.00 0.00 0.00 56 934.2
20260509150017 51 360 4.0 10.0 0.00 0.00 0.00 55 934.2
20260509145516 51 360 5.0 10.0 0.00 0.00 0.00 56 934.3
20260509145015 51 360 2.0 9.0 0.00 0.00 0.00 58 934.2
20260509144514 50 360 0.0 8.0 0.00 0.00 0.00 60 934.3
20260509143514 50 360 2.0 9.0 0.00 0.00 0.00 59 934.1
20260509143014 49 360 6.0 9.0 0.00 0.00 0.00 62 934.1
20260509142516 49 360 4.0 7.0 0.00 0.00 0.00 63 934.0
20260509142012 49 360 4.0 6.0 0.00 0.00 0.00 65 934.0
20260509141512 48 360 4.0 8.0 0.00 0.00 0.00 66 933.9
20260509141012 48 360 3.0 8.0 0.00 0.00 0.00 68 933.9
20260509140511 47 360 4.0 7.0 0.00 0.00 0.00 70 933.9
20260509140013 47 360 2.0 7.0 0.00 0.00 0.00 69 933.8
20260509135509 46 360 3.0 6.0 0.00 0.00 0.00 71 933.8
20260509135009 46 360 5.0 7.0 0.00 0.00 0.00 71 933.7
20260509134509 45 360 4.0 7.0 0.00 0.00 0.00 72 933.6
20260509133506 44 338 4.0 7.0 0.00 0.00 0.00 75 933.6
20260509133007 44 335 4.0 6.0 0.00 0.00 0.00 77 933.6
20260509132507 43 329 4.0 6.0 0.00 0.00 0.00 78 933.5
20260509132005 42 360 3.0 6.0 0.00 0.00 0.00 79 933.6
20260509131509 42 360 4.0 6.0 0.00 0.00 0.00 81 933.5
20260509131005 41 360 2.0 6.0 0.00 0.00 0.00 84 933.5
20260509130507 41 360 3.0 6.0 0.00 0.00 0.00 84 933.4
20260509130008 40 360 3.0 5.0 0.00 0.00 0.00 85 933.4
20260509125505 39 360 3.0 5.0 0.00 0.00 0.00 86 933.3
20260509125003 39 360 3.0 5.0 0.00 0.00 0.00 86 933.3
20260509124503 38 360 3.0 5.0 0.00 0.00 0.00 87 933.3
20260509123503 36 360 2.0 4.0 0.00 0.00 0.00 88 933.2
20260509123003 36 360 1.0 3.0 0.00 0.00 0.00 88 933.1
20260509122502 35 360 2.0 4.0 0.00 0.00 0.00 88 933.0
20260509122001 34 344 1.0 3.0 0.00 0.00 0.00 87 932.8
20260509121501 33 360 1.0 2.0 0.00 0.00 0.00 86 932.7
20260509121102 33 360 1.0 2.0 0.00 0.00 0.00 86 932.7
20260509121001 33 360 1.0 2.0 0.00 0.00 0.00 86 932.7
20260509120600 33 360 0.0 1.0 0.00 0.00 0.00 86 932.6
20260509120100 33 360 0.0 1.0 0.00 0.00 0.00 85 932.6
20260509115600 33 360 0.0 1.0 0.00 0.00 0.00 84 932.6
20260509115059 33 360 0.0 1.0 0.00 0.00 0.00 83 932.5
20260509114603 34 360 0.0 1.0 0.00 0.00 0.00 82 932.5
20260509113557 36 360 0.0 5.0 0.00 0.00 0.00 83 932.2
20260509113100 36 360 2.0 6.0 0.00 0.00 0.00 85 932.2
20260509112555 36 360 4.0 6.0 0.00 0.00 0.00 84 932.1
20260509112054 36 360 4.0 5.0 0.00 0.00 0.00 85 932.1
20260509111554 36 360 4.0 6.0 0.00 0.00 0.00 86 931.9
20260509111054 35 360 1.0 7.0 0.00 0.00 0.00 86 931.9
20260509110555 33 360 5.0 7.0 0.00 0.00 0.00 83 931.9
20260509110052 34 360 5.0 7.0 0.00 0.00 0.00 81 931.8
20260509105550 36 360 6.0 7.0 0.00 0.00 0.00 80 931.7
20260509105049 38 360 0.0 0.0 0.00 0.00 0.00 82 931.7
20260509104551 38 360 0.0 0.0 0.00 0.00 0.00 81 931.6
20260509103547 39 360 0.0 0.0 0.00 0.00 0.00 83 931.5
20260509103058 38 360 0.0 0.0 0.00 0.00 0.00 83 931.4
20260509102547 38 360 0.0 0.0 0.00 0.00 0.00 83 931.5
20260509102047 38 360 0.0 0.0 0.00 0.00 0.00 83 931.3
20260509101559 38 360 0.0 7.0 0.00 0.00 0.00 84 931.3
20260509101045 38 360 3.0 7.0 0.00 0.00 0.00 84 931.3
20260509100544 38 360 4.0 6.0 0.00 0.00 0.00 83 931.3
20260509100043 38 360 0.0 2.0 0.00 0.00 0.00 82 931.1
20260509095542 38 360 0.0 2.0 0.00 0.00 0.00 82 931.0
20260509095040 39 360 0.0 2.0 0.00 0.00 0.00 82 931.0
20260509094545 39 360 0.0 4.0 0.00 0.00 0.00 82 931.1
20260509093539 39 360 0.0 2.0 0.00 0.00 0.00 82 930.9
20260509093039 39 360 1.0 2.0 0.00 0.00 0.00 82 930.8
20260509092539 39 360 0.0 4.0 0.00 0.00 0.00 81 930.8
20260509092037 39 360 1.0 4.0 0.00 0.00 0.00 81 930.6
20260509091536 39 360 2.0 3.0 0.00 0.00 0.00 80 930.5
20260509091037 40 360 2.0 3.0 0.00 0.00 0.00 78 930.4
20260509090536 41 360 0.0 5.0 0.00 0.00 0.00 76 930.3
20260509090039 42 360 1.0 5.0 0.00 0.00 0.00 77 930.3
20260509085530 42 360 1.0 4.0 0.00 0.00 0.00 76 930.3
20260509085029 43 360 1.0 2.0 0.00 0.00 0.00 75 930.1
20260509084527 44 360 0.0 2.0 0.00 0.00 0.00 75 930.1
20260509083527 44 360 0.0 1.0 0.00 0.00 0.00 77 929.9
20260509083035 44 360 0.0 2.0 0.00 0.00 0.00 77 929.9
20260509082525 44 360 0.0 4.0 0.00 0.00 0.00 77 929.8
20260509082025 44 360 0.0 4.0 0.00 0.00 0.00 77 929.7
20260509081524 44 360 1.0 4.0 0.00 0.00 0.00 77 929.6
20260509081023 44 360 2.0 4.0 0.00 0.00 0.00 75 929.5
20260509080521 44 360 1.0 3.0 0.00 0.00 0.00 75 929.4
20260509080022 45 360 1.0 5.0 0.00 0.00 0.00 74 929.4
20260509075519 45 360 2.0 7.0 0.00 0.00 0.00 74 929.3
20260509075020 46 360 4.0 7.0 0.00 0.00 0.00 74 929.2
20260509074518 46 360 3.0 7.0 0.00 0.00 0.00 74 929.1
20260509074116 46 360 4.0 7.0 0.00 0.00 0.00 73 929.1
20260509073516 46 360 4.0 6.0 0.00 0.00 0.00 73 929.1
20260509073023 47 360 3.0 6.0 0.00 0.00 0.00 73 929.0
20260509072514 47 360 2.0 6.0 0.00 0.00 0.00 74 928.9
20260509072013 47 360 2.0 6.0 0.00 0.00 0.00 75 929.0
20260509071514 47 360 0.0 6.0 0.00 0.00 0.00 77 929.0
20260509071011 47 360 2.0 6.0 0.00 0.00 0.00 77 929.0
20260509070511 48 360 2.0 6.0 0.00 0.00 0.00 77 928.9
20260509070010 48 360 3.0 8.0 0.00 0.00 0.00 77 928.9
20260509065508 48 360 4.0 9.0 0.00 0.00 0.00 77 928.8
20260509065008 49 360 5.0 10.0 0.00 0.00 0.00 77 928.8
20260509064507 49 360 7.0 10.0 0.00 0.00 0.00 77 928.8
20260509063509 50 360 4.0 11.0 0.00 0.00 0.00 75 928.6
20260509063013 50 360 6.0 13.0 0.00 0.00 0.00 75 928.6
20260509062504 50 360 7.0 12.0 0.00 0.00 0.00 74 928.6
20260509062005 50 360 4.0 9.0 0.00 0.00 0.00 74 928.5
20260509061501 49 360 4.0 6.0 0.00 0.00 0.00 74 928.4
20260509061100 49 360 1.0 3.0 0.00 0.00 0.00 73 928.4
20260509060600 49 360 1.0 3.0 0.00 0.00 0.00 73 928.2
20260509060501 49 360 1.0 3.0 0.00 0.00 0.00 73 928.1
20260509060110 49 360 1.0 2.0 0.00 0.00 0.00 73 928.1
20260509055600 49 360 0.0 2.0 0.00 0.00 0.00 72 928.1
20260509055200 49 360 0.0 4.0 0.00 0.00 0.00 72 927.9
20260509054611 49 360 1.0 5.0 0.00 0.00 0.00 71 927.8
20260509054159 50 360 3.0 7.0 0.00 0.00 0.00 70 927.7
20260509053558 50 360 4.0 8.0 0.00 0.00 0.00 70 927.6
20260509053130 51 360 5.0 8.0 0.00 0.00 0.00 69 927.5
20260509052558 51 360 5.0 10.0 0.00 0.00 0.00 68 927.5
20260509052056 52 360 7.0 11.0 0.00 0.00 0.00 67 927.4
20260509051557 52 360 7.0 11.0 0.00 0.00 0.00 67 927.3
20260509051056 52 360 8.0 12.0 0.00 0.00 0.00 67 927.4
20260509050558 52 360 8.0 12.0 0.00 0.00 0.00 67 927.4
20260509050056 52 360 9.0 12.0 0.00 0.00 0.00 67 927.5
20260509045557 52 360 7.0 12.0 0.00 0.00 0.00 66 927.2
20260509045055 52 360 9.0 11.0 0.00 0.00 0.00 66 927.2
20260509044640 52 360 8.0 12.0 0.00 0.00 0.00 65 927.3
20260509044156 53 360 8.0 12.0 0.00 0.00 0.00 65 927.3
20260509043556 53 360 7.0 12.0 0.00 0.00 0.00 65 927.2
20260509043138 52 360 8.0 13.0 0.00 0.00 0.00 65 927.1
20260509042555 53 360 8.0 15.0 0.00 0.00 0.00 64 927.1
20260509042057 53 360 9.0 15.0 0.00 0.00 0.00 63 927.0
20260509041555 53 360 10.0 16.0 0.00 0.00 0.00 63 927.0
20260509041055 53 360 10.0 18.0 0.00 0.00 0.00 63 927.0
20260509040558 53 360 11.0 18.0 0.00 0.00 0.00 63 926.8
20260509040057 53 360 9.0 18.0 0.00 0.00 0.00 63 926.8
20260509035558 54 360 11.0 19.0 0.00 0.00 0.00 63 926.7
20260509035055 54 360 12.0 19.0 0.00 0.00 0.00 63 926.7
20260509034555 54 360 13.0 16.0 0.00 0.00 0.00 64 926.5
20260509034154 54 360 10.0 21.0 0.00 0.00 0.00 65 926.8
20260509033556 54 360 12.0 21.0 0.00 0.00 0.00 65 926.6
20260509033054 55 360 13.0 20.0 0.00 0.00 0.00 64 926.2
20260509032553 55 360 11.0 19.0 0.00 0.00 0.00 63 926.6
20260509032052 56 360 11.0 22.0 0.00 0.00 0.00 62 926.7
20260509031559 57 360 15.0 22.0 0.00 0.00 0.00 58 926.3
20260509031053 57 71 5.0 10.0 0.00 0.00 0.00 56 926.4
20260509030553 57 360 5.0 10.0 0.00 0.00 0.00 57 926.6
20260509030110 57 360 3.0 8.0 0.00 0.00 0.00 57 926.5
20260509025551 57 360 3.0 7.0 0.00 0.00 0.00 57 926.4
20260509025053 57 360 4.0 8.0 0.00 0.00 0.00 56 926.3
20260509024552 57 360 4.0 8.0 0.00 0.00 0.00 56 926.3
20260509024052 58 360 4.0 9.0 0.00 0.00 0.00 56 926.2
20260509023559 58 360 4.0 9.0 0.00 0.00 0.00 56 926.0
20260509023057 58 27 6.0 9.0 0.00 0.00 0.00 56 926.0
20260509022554 58 360 6.0 9.0 0.00 0.00 0.00 56 926.0
20260509022058 58 360 4.0 11.0 0.00 0.00 0.00 56 925.9
20260509021554 59 360 6.0 12.0 0.00 0.00 0.00 55 925.7
20260509021056 59 360 6.0 12.0 0.00 0.00 0.00 55 925.5
20260509020553 59 360 6.0 13.0 0.00 0.00 0.00 55 925.5
20260509020104 59 360 6.0 15.0 0.00 0.00 0.00 55 925.6
20260509015555 60 360 7.0 21.0 0.00 0.00 0.00 55 925.6
20260509015053 60 360 9.0 20.0 0.00 0.00 0.00 54 925.5
20260509014555 60 360 10.0 16.0 0.00 0.00 0.00 53 925.5
20260509014152 60 360 9.0 18.0 0.00 0.00 0.00 57 925.5
20260509013552 60 360 8.0 18.0 0.00 0.00 0.00 56 925.4
20260509013058 61 360 10.0 18.0 0.00 0.00 0.00 57 925.4
20260509012552 60 360 9.0 15.0 0.00 0.00 0.00 55 925.6
20260509012051 60 360 10.0 15.0 0.00 0.00 0.00 55 925.6
20260509011555 60 360 8.0 14.0 0.00 0.00 0.00 54 925.1
20260509011050 61 360 8.0 13.0 0.00 0.00 0.00 53 925.0
20260509010551 61 360 8.0 13.0 0.00 0.00 0.00 51 924.6
20260509010051 61 360 8.0 14.0 0.00 0.00 0.00 51 924.5
20260509005552 62 360 9.0 15.0 0.00 0.00 0.00 50 924.3
20260509005051 63 47 8.0 15.0 0.00 0.00 0.00 48 924.3
20260509004557 65 65 9.0 14.0 0.00 0.00 0.00 44 924.3
20260509004149 65 47 6.0 20.0 0.00 0.00 0.00 42 924.3
20260509003547 65 19 6.0 20.0 0.00 0.00 0.00 41 924.4
20260509003054 67 19 12.0 23.0 0.00 0.00 0.00 37 924.5
20260509002546 67 360 14.0 27.0 0.00 0.00 0.00 38 924.8
20260509002046 67 9 9.0 37.0 0.00 0.00 0.00 35 925.2
20260509001546 68 314 19.0 37.0 0.00 0.00 0.00 32 925.3
20260509001045 68 320 11.0 15.0 0.00 0.00 0.00 32 924.9
20260509000547 68 329 10.0 15.0 0.00 0.00 0.00 32 924.7
20260509000046 69 324 9.0 12.0 0.00 0.00 0.00 32 924.6